User: anonymous   Login
Location: Unspecified
(0.0000°N, 0.0000°E)
Time: 09:56:17
(UTC+00:00)
Language:

3CAT-2 - Orbit

View from above orbital plane
View from above orbital plane
View from above satellite
View from above satellite

Ground track
Ground track

The orbit data is extracted from the following two-line orbital elements,

1 41732U 16051B   18199.81473124  .00001080  00000-0  44619-4 0  9995
2 41732  97.3693 116.2463 0012918 319.8161  88.9120 15.26109812107000
Epoch (UTC): 18 July 2018 19:33:12
Eccentricity: 0.0012918
inclination: 97.3693°
perigee height: 478 km
apogee height: 496 km
right ascension of ascending node: 116.2463°
argument of perigee: 319.8161°
revolutions per day: 15.26109812
mean anomaly at epoch: 88.9120°
orbit number at epoch: 10700

The dashed part of the orbit path shows where the satellite is in the earth's shadow,  

DLR